Weather History for PAOR - December, 2013

Change the Weather History Date:

Sunday, December 22, 2013

  Actual Average Record
Temperature  
Mean Temperature 6 °F -  
Max Temperature 10 °F -5 °F 100 °F (1996)
Min Temperature 3 °F -21 °F -57 °F (1961)
Degree Days  
Heating Degree Days 58    
Moisture  
Dew Point 1 °F    
Average Humidity 81    
Maximum Humidity 85    
Minimum Humidity 73    
Precipitation  
Precipitation 0.00 in - - ()
Snow  
Snow 0.00 in - - ()
Snow Depth 10.00 in    
Sea Level Pressure  
Sea Level Pressure 29.61 in    
Wind  
Wind Speed 3 mph (NW)    
Max Wind Speed 14 mph    
Max Gust Speed 23 mph    
Visibility 2 miles    
Events Snow    
Averages and records for this station are not official NWS values.
T = Trace of Precipitation, MM = Missing Value Source: NWS Daily Summary

Daily Weather History Graph

Daily Weather History Graph

Search for Another Location

Airport or City:

Trip Planner

Search our weather history database for the weather conditions in past years. The results will help you decide how hot, cold, wet, or windy it might be!

Date:

Astronomy

Dec. 22, 2013 Rise Set
Actual Time 10:04 AM AKST 2:48 PM AKST
Civil Twilight 8:53 AM AKST 3:59 PM AKST
Nautical Twilight 7:48 AM AKST 5:04 PM AKST
Astronomical Twilight 6:51 AM AKST 6:01 PM AKST
Moon 10:02 PM AKST (12/22) 11:19 AM AKST (12/22)
Length of Visible Light 7h 06m
Length of Day
4h 44m
Waning Gibbous, 75% of the Moon is Illuminated
Dec 22
Waning Gibbous
Dec 25
Last Quarter
Jan 1
New
Jan 7
First Quarter
Jan 15
Full

Hourly Weather History & Observations

Time (AKST) Temp. Windchill Dew Point Humidity Pressure Visibility Wind Dir Wind Speed Gust Speed Precip Events Conditions
12:53 AM 3.0 °F - -2.0 °F 80% 29.83 in 3.0 mi Calm Calm - N/A Snow Light Snow
1:53 AM 3.0 °F - -2.0 °F 80% 29.80 in 8.0 mi Calm Calm - N/A Snow Light Snow
2:53 AM 3.0 °F - -2.0 °F 80% 29.78 in 9.0 mi Calm Calm - N/A Snow Light Snow
3:53 AM 3.9 °F - -2.0 °F 76% 29.74 in 9.0 mi Calm Calm - N/A Snow Light Snow
4:33 AM 3.2 °F - -2.2 °F 78% 29.56 in 2.0 mi Calm Calm - N/A Snow Light Snow
4:53 AM 3.9 °F - -0.9 °F 80% 29.72 in 2.0 mi Calm Calm - N/A Snow Light Snow
5:45 AM 3.2 °F - -0.4 °F 85% 29.53 in 1.0 mi Calm Calm - N/A Snow Light Snow
5:53 AM 3.0 °F - -0.9 °F 84% 29.70 in 1.0 mi Calm Calm - N/A Snow Light Snow
6:06 AM 3.2 °F - -0.4 °F 85% 29.52 in 2.0 mi Calm Calm - N/A Snow Light Snow
6:53 AM 3.0 °F - -0.9 °F 84% 29.68 in 2.0 mi Calm Calm - N/A Snow Light Snow
7:53 AM 3.0 °F - -0.9 °F 84% 29.66 in 2.0 mi Calm Calm - N/A Snow Light Snow
8:53 AM 3.0 °F - -0.9 °F 84% 29.65 in 2.0 mi Calm Calm - N/A Snow Light Snow
9:27 AM 3.2 °F - -2.2 °F 78% 29.47 in 1.2 mi Calm Calm - N/A Snow Light Snow
9:53 AM 3.0 °F - -0.9 °F 84% 29.64 in 1.0 mi Calm Calm - N/A Snow Light Snow
10:53 AM 3.0 °F - -0.9 °F 84% 29.63 in 1.0 mi Calm Calm - N/A Snow Light Snow
11:53 AM 3.9 °F - -0.9 °F 80% 29.62 in 1.0 mi Calm Calm - N/A Snow Light Snow
12:53 PM 3.9 °F - -0.9 °F 80% 29.63 in 0.5 mi Calm Calm - N/A Snow Snow
1:24 PM 3.2 °F - -0.4 °F 85% 29.46 in 0.5 mi Calm Calm - N/A Snow Snow
1:53 PM 3.9 °F - -0.9 °F 80% 29.64 in 0.5 mi Calm Calm - N/A Snow Snow
2:17 PM 3.2 °F -7.8 °F -0.4 °F 85% 29.48 in 0.8 mi WNW 5.8 mph - N/A Snow Light Snow
2:42 PM 3.2 °F -7.8 °F -0.4 °F 85% 29.50 in 1.0 mi NW 5.8 mph - N/A Snow Light Snow
2:53 PM 3.9 °F -5.3 °F -0.0 °F 84% 29.68 in 1.2 mi WNW 4.6 mph - N/A Snow Light Snow
3:10 PM 3.2 °F -4.2 °F -0.4 °F 85% 29.50 in 2.0 mi West 3.5 mph - N/A Snow Light Snow
3:27 PM 3.2 °F -4.2 °F -0.4 °F 85% 29.51 in 1.8 mi Variable 3.5 mph - N/A Snow Light Snow
3:53 PM 5.0 °F -4.1 °F -0.0 °F 80% 29.68 in 1.2 mi Variable 4.6 mph - N/A Snow Light Snow
4:53 PM 6.1 °F - 1.9 °F 83% 29.68 in 1.8 mi Calm Calm - N/A Snow Light Snow
5:11 PM 5.0 °F -4.1 °F 1.4 °F 85% 29.51 in 2.5 mi Variable 4.6 mph - N/A Snow Light Snow
5:15 PM 6.8 °F -3.5 °F 1.4 °F 79% 29.52 in 2.5 mi West 5.8 mph - N/A Snow Light Snow
5:46 PM 5.0 °F -4.1 °F 1.4 °F 85% 29.52 in 7.0 mi West 4.6 mph - N/A Snow Light Snow
5:53 PM 5.0 °F -4.1 °F 1.0 °F 84% 29.70 in 7.0 mi West 4.6 mph - N/A Snow Light Snow
6:06 PM 6.8 °F -2.0 °F 1.4 °F 79% 29.52 in 2.5 mi Variable 4.6 mph - N/A Snow Light Snow
6:12 PM 6.8 °F -3.5 °F 3.2 °F 85% 29.52 in 2.0 mi WNW 5.8 mph - N/A Snow Light Snow
6:53 PM 9.0 °F -2.2 °F 3.9 °F 80% 29.69 in 1.5 mi NW 6.9 mph - N/A Snow Light Snow
7:38 PM 10.4 °F -4.8 °F 5.0 °F 79% 29.53 in 2.5 mi NNW 12.7 mph 20.7 mph N/A Snow Light Snow
7:53 PM 10.0 °F -3.7 °F 5.0 °F 80% 29.70 in 2.5 mi NW 10.4 mph - N/A Snow Light Snow
7:58 PM 10.4 °F -3.3 °F 5.0 °F 79% 29.54 in 2.0 mi NW 10.4 mph 19.6 mph N/A Snow Light Snow
8:07 PM 10.4 °F -4.1 °F 5.0 °F 79% 29.54 in 1.5 mi NW 11.5 mph 19.6 mph N/A Snow Light Snow
8:37 PM 10.4 °F -3.3 °F 5.0 °F 79% 29.54 in 1.5 mi NW 10.4 mph 18.4 mph N/A Snow Light Snow
8:53 PM 10.0 °F -4.5 °F 5.0 °F 80% 29.71 in 3.0 mi NW 11.5 mph 17.3 mph N/A Snow Light Snow
9:21 PM 10.4 °F -5.4 °F 3.2 °F 73% 29.55 in 2.5 mi NW 13.8 mph 23.0 mph N/A Snow Light Snow
9:32 PM 10.4 °F -4.8 °F 5.0 °F 79% 29.55 in 1.8 mi NW 12.7 mph 20.7 mph N/A Snow Light Snow
9:53 PM 10.0 °F -4.5 °F 3.9 °F 76% 29.72 in 1.8 mi NW 11.5 mph 21.9 mph N/A Snow Light Snow
10:18 PM 10.4 °F -4.1 °F 5.0 °F 79% 29.57 in 1.5 mi NW 11.5 mph 18.4 mph N/A Snow Light Snow
10:53 PM 10.0 °F -5.2 °F 5.0 °F 80% 29.75 in 1.5 mi NW 12.7 mph 20.7 mph N/A Snow Light Snow
11:14 PM 10.4 °F -2.4 °F 3.2 °F 73% 29.58 in 2.0 mi NW 9.2 mph 21.9 mph N/A Snow Light Snow
11:43 PM 10.4 °F -4.1 °F 3.2 °F 73% 29.59 in 5.0 mi NW 11.5 mph 18.4 mph N/A Snow Light Snow
11:53 PM 10.0 °F -3.7 °F 3.9 °F 76% 29.76 in 5.0 mi NW 10.4 mph 16.1 mph N/A Snow Light Snow